Location: Hoyos del Collado
(40.3594°N, 5.2003°W)
Time: 05:52:46
(UTC+00:00)

SJ 16-02 - Visible Passes

Search period start: 16 July 2024 00:00
Search period end: 26 July 2024 00:00
Orbit: 593 x 606 km, 75.0° (Epoch: 15 July)

Date Brightness Start Highest point End Pass type
(mag) Time Alt. Az. Time Alt. Az. Time Alt. Az.
16 Jul 2.0 02:14:56 10° N 02:19:13 51° ENE 02:20:57 31° SE visible
16 Jul 3.2 03:55:00 10° WNW 03:57:02 13° W 03:57:37 13° WSW visible
17 Jul 1.2 02:26:05 10° NNW 02:30:29 89° WSW 02:31:11 63° SSE visible
18 Jul 3.8 01:00:25 10° NNE 01:03:03 15° ENE 01:04:49 13° E visible
18 Jul 1.6 02:37:27 10° NNW 02:41:31 48° W 02:41:31 48° W visible
19 Jul 3.1 01:10:53 10° N 01:14:31 25° ENE 01:15:15 24° E visible
19 Jul 2.6 02:49:05 10° NW 02:51:57 26° W 02:51:57 26° W visible
20 Jul 2.3 01:21:43 10° N 01:25:45 42° ENE 01:25:45 42° ENE visible
20 Jul 3.4 03:01:10 10° WNW 03:02:27 14° WNW 03:02:27 14° WNW visible
21 Jul 1.9 01:32:48 10° NNW 01:36:19 55° N 01:36:19 55° N visible
22 Jul 3.9 00:07:34 10° NNE 00:09:39 13° ENE 00:10:13 13° ENE visible
22 Jul 2.4 01:44:04 10° NNW 01:46:55 38° NW 01:46:55 38° NW visible
23 Jul 3.4 00:17:46 10° NNE 00:20:52 21° ENE 00:20:52 21° ENE visible
23 Jul 3.1 01:55:35 10° NW 01:57:35 23° NW 01:57:35 23° NW visible
24 Jul 2.9 00:28:29 10° N 00:31:34 31° NE 00:31:34 31° NE visible
24 Jul 3.7 02:07:27 10° NW 02:08:17 13° WNW 02:08:17 13° WNW visible
25 Jul 2.7 00:39:29 10° N 00:42:17 37° N 00:42:17 37° N visible
25 Jul 4.0 23:15:01 10° NE 23:16:09 11° ENE 23:16:20 11° ENE visible
